sat.trackr.live / text

‹ back to catalog

STARLINK-35313

NORAD 65758 · 2025-216AA

PAYLOAD ACTIVE UNKNOWN

§ Identity

Operator
Country
US
Launch date
2025-09-25
Launch site
AFETR
Launch vehicle
Mass (kg)
RCS (m²)

Purposes: comms

External: N2YO · Heavens-Above · Gunter

§ Orbital elements

Epoch: 2026-05-24T18:41:43.694880Z

Period
94.10 min
Inclination
53.1596°
Eccentricity
0.0000978
Mean motion
15.30211300 rev/d
Perigee alt
474.5 km
Apogee alt
475.9 km
Semi-major
6,853.3 km
B*
5.3664e-4
RAAN
339.4254°
Arg perigee
95.2549°
Mean anomaly
264.8564°
Rev number
3,815

§ Raw data

STARLINK-353131 65758U 25216AA  26144.77897795  .00015573  00000+0  53664-3 0  99902 65758  53.1596 339.4254 0000978  95.2549 264.8564 15.30211300 38158

JSON: /api/v1/satellites/65758 · /tle

For live sub-satellite position, see the globe view (requires WebGL).

§ Visibility from observer

Set your observer location to see the next 7 days of passes ≥ 10°. The values pass through the URL so the page stays shareable.

No JS? Fill the form by hand. The geolocation button needs JavaScript.